[Date Prev][Date Next][Thread Prev][Thread Next] - [Date Index][Thread Index][Author Index]

ISS - STS-118 KEPS DAY 231



ISS (ZARYA)             
1 25544U 98067A   07231.34738624 -.00017018  00000-0 -10283-3 0  8119
2 25544  51.6329 137.8213 0008073 260.9650 203.1201 15.76039501500741
STS 118                 
1 32008U 07035A   07231.71693693  .00004676  00000-0  33326-4 0   260
2 32008  51.6337 135.9163 0009802 251.8863 150.6099 15.76139009  1697

----
Sent via sarex@amsat.org. Opinions expressed are those of the author.
Not an AMSAT member? Join now to support the amateur satellite program!
Subscription settings: http://amsat.org/mailman/listinfo/sarex



AMSAT Top AMSAT Home